[[{"header":{"parameterUnit":"m.s-1","parameterCategory":1,"la1":30.2991,"la2":30.254,"lo1":-89.0895,"lo2":-89.0444,"dy":0.0017,"dx":0.0017,"nx":28,"ny":28,"refTime":"2025-09-06T03:00:00:Z","depth":0,"parameterNumber":2,"parameterNumberName":"U-component_of_WINDS"},"data":[0,0,0,0,0,0,0,0,0,0,0,0,0,0,0,0,0,0,0,0,0,0,0,0,0,0,0,0,0,0,0,0,0,0,0,0,0,0,0,0,0,0,0,0,0,0,0,0,0,0,0,0,0,0,0,0,0,0,-0.6284,-0.6283,0,-0.6256,-0.6256,-0.6256,-0.6216,-0.6215,-0.6215,-0.6214,-0.6188,-0.6188,-0.6188,0,0,0,0,0,0,0,0,0,0,0,0,0,-0.6304,-0.6304,-0.6284,-0.6283,-0.6283,-0.6256,-0.6256,-0.6256,-0.6216,-0.6215,-0.6215,-0.6214,-0.6188,-0.6188,-0.6188,0,0,0,0,0,0,0,0,0,0,0,0,0,-0.6288,-0.6304,-0.6284,-0.626,-0.6258,-0.6256,-0.6256,-0.6256,-0.6216,-0.6215,-0.6214,-0.6213,-0.6188,-0.6188,-0.6188,-0.6208,0,0,-0.6187,-0.6187,0,0,0,0,0,0,0,0,-0.6289,-0.6287,-0.6264,-0.6262,-0.6259,-0.6239,-0.6254,-0.624,-0.6217,-0.6232,-0.6214,-0.6213,-0.6206,-0.6204,-0.6201,-0.6207,-0.6205,-0.6187,-0.6187,-0.6187,-0.6187,0,0,0,0,0,0,0,-0.629,-0.6288,-0.6273,-0.6264,-0.6261,-0.6252,-0.6248,-0.6251,-0.6225,-0.6231,-0.6228,-0.6225,-0.6204,-0.6201,-0.62,-0.6205,-0.6187,-0.6187,-0.6187,-0.6187,-0.6227,-0.6228,0,0,0,0,0,0,-0.6295,-0.629,-0.6274,-0.6272,-0.6272,-0.6252,-0.6248,-0.6246,-0.6225,-0.6221,-0.6226,-0.6223,-0.6202,-0.62,-0.6199,-0.6222,-0.6187,-0.6187,-0.6187,-0.6226,-0.6227,-0.6228,0,0,0,0,0,0,-0.6295,-0.6294,-0.6275,-0.628,-0.6277,-0.6253,-0.6251,-0.6246,-0.6243,-0.6221,-0.6217,-0.6228,-0.6201,-0.6199,-0.6206,-0.622,-0.6187,-0.6187,-0.6224,-0.6226,-0.6228,-0.6267,0,0,0,0,0,0,-0.6296,-0.6294,-0.6301,-0.628,-0.6277,-0.6282,-0.6252,-0.6246,-0.6243,-0.6239,-0.6222,-0.6218,-0.62,-0.6206,-0.6206,-0.622,-0.6187,-0.6223,-0.6225,-0.6227,-0.6265,-0.627,-0.6275,0,0,0,0,0,-0.6297,-0.6313,-0.6301,-0.63,-0.6285,-0.6283,-0.6281,-0.6259,-0.6244,-0.6252,-0.6238,-0.6218,-0.6219,-0.6207,-0.6207,-0.6221,-0.6222,-0.6224,-0.6227,-0.6262,-0.6269,-0.6275,0,0,0,0,0,0,-0.6337,-0.631,-0.6297,-0.6307,-0.6297,-0.6276,-0.6284,-0.6267,-0.6262,-0.6259,-0.6233,-0.623,-0.624,-0.6231,-0.6218,-0.6239,-0.6218,-0.622,-0.6245,-0.6251,-0.6256,-0.6258,-0.6187,0,0,0,0,0,-0.6346,-0.6346,-0.6323,-0.6335,-0.6331,-0.6308,-0.6307,-0.6291,-0.628,-0.6276,-0.6263,-0.6253,-0.6251,-0.6251,-0.6248,-0.6263,-0.6259,-0.6273,-0.6278,-0.6282,-0.6284,-0.6293,-0.6298,-0.6236,-0.6236,-0.6236,0,0,-0.6367,-0.6353,-0.6354,-0.6342,-0.6333,-0.6334,-0.6305,-0.6307,-0.6308,-0.6277,-0.6282,-0.6272,-0.626,-0.6272,-0.6276,-0.6264,-0.6301,-0.6285,-0.6289,-0.6289,-0.6296,-0.6302,-0.6307,-0.6238,-0.6238,-0.6237,0,0,-0.6405,-0.6394,-0.6402,-0.6393,-0.6379,-0.6365,-0.6367,-0.6348,-0.634,-0.6345,-0.6322,-0.6323,-0.632,-0.6313,-0.6309,-0.6345,-0.6327,-0.6345,-0.6371,-0.638,-0.6385,-0.6389,-0.6402,-0.6407,-0.6347,-0.6347,-0.6347,0,-0.6432,-0.6432,-0.6409,-0.6412,-0.6408,-0.638,-0.6389,-0.6382,-0.6368,-0.6366,-0.6353,-0.635,-0.634,-0.6349,-0.6358,-0.6356,-0.6358,-0.6346,-0.6386,-0.639,-0.6393,-0.6406,-0.6411,-0.6349,-0.6349,-0.6349,-0.6349,0,-0.6467,-0.6467,-0.6476,-0.6463,-0.646,-0.6466,-0.6445,-0.6445,-0.643,-0.6417,-0.6423,-0.641,-0.6404,-0.6405,-0.6391,-0.6413,-0.6406,-0.639,-0.6368,-0.6402,-0.6413,-0.6418,-0.6353,-0.6352,-0.6351,-0.6351,0,0,-0.6529,-0.6503,-0.6506,-0.65,-0.6483,-0.6484,-0.6489,-0.6483,-0.6484,-0.6476,-0.648,-0.6479,-0.6464,-0.6459,-0.6444,-0.6451,-0.6481,-0.6434,-0.6433,-0.6444,-0.6506,-0.6518,-0.6524,-0.647,-0.6471,-0.6471,-0.6507,0,-0.6563,-0.657,-0.655,-0.6563,-0.6563,-0.6537,-0.6542,-0.6532,-0.652,-0.652,-0.6507,-0.6506,-0.6486,-0.6484,-0.649,-0.6476,-0.6494,-0.6474,-0.6474,-0.6475,-0.6478,-0.653,-0.6543,-0.6578,-0.6511,-0.6512,-0.6513,0,-0.6605,-0.6598,-0.6611,-0.6594,-0.6593,-0.6598,-0.6591,-0.6591,-0.658,-0.6571,-0.6566,-0.6548,-0.6553,-0.6532,-0.6539,-0.6526,-0.6525,-0.6519,-0.652,-0.6519,-0.6496,-0.6531,-0.6588,-0.6593,-0.6519,-0.6519,-0.6518,0,-0.6649,-0.6644,-0.6651,-0.6646,-0.6626,-0.663,-0.6622,-0.661,-0.6608,-0.6603,-0.6601,-0.6596,-0.6594,-0.6591,-0.6573,-0.6559,-0.6583,-0.656,-0.6576,-0.6577,-0.6582,-0.6582,-0.664,-0.6581,-0.6581,-0.6581,-0.6581,0,-0.669,-0.6699,-0.667,-0.6675,-0.6684,-0.6661,-0.6671,-0.6661,-0.6651,-0.6653,-0.663,-0.6633,-0.6608,-0.6609,-0.6595,-0.6604,-0.6603,-0.6596,-0.6592,-0.6598,-0.6599,-0.6597,-0.6595,-0.6583,-0.6582,-0.6582,-0.6582,0,-0.6742,-0.6722,-0.6728,-0.6709,-0.6704,-0.6712,-0.6696,-0.67,-0.6686,-0.669,-0.6689,-0.6669,-0.6669,-0.665,-0.6646,-0.6637,-0.6651,-0.6643,-0.6655,-0.6652,-0.667,-0.6669,-0.6729,-0.6736,-0.6673,-0.6673,-0.6674,0,-0.6769,-0.6775,-0.6756,-0.6756,-0.6749,-0.6749,-0.6747,-0.6724,-0.6723,-0.6712,-0.6717,-0.6715,-0.6711,-0.6712,-0.6698,-0.6695,-0.6686,-0.6708,-0.6686,-0.6692,-0.6687,-0.6687,-0.6688,-0.6712,-0.6713,-0.6714,-0.6714,0,-0.682,-0.6811,-0.6808,-0.6802,-0.68,-0.6794,-0.6787,-0.6788,-0.6764,-0.6764,-0.6763,-0.6761,-0.6756,-0.6755,-0.6749,-0.6741,-0.6724,-0.6721,-0.6725,-0.6731,-0.6738,-0.6735,-0.6668,-0.672,-0.6719,-0.6719,-0.6719,-0.6718,-0.6861,-0.6865,-0.6853,-0.6851,-0.6843,-0.6837,-0.684,-0.6827,-0.6825,-0.682,-0.6807,-0.6808,-0.6798,-0.6789,-0.6783,-0.6784,-0.6773,-0.6779,-0.678,-0.6782,-0.6785,-0.6738,-0.6783,-0.6783,-0.6783,-0.6782,-0.6782,0,-0.6911,-0.6902,-0.69,-0.6891,-0.689,-0.6873,-0.6864,-0.6864,-0.6866,-0.6857,-0.6855,-0.6854,-0.6852,-0.6838,-0.6834,-0.6838,-0.6831,-0.6838,-0.6838,-0.6837,-0.6795,-0.6792,-0.6845,-0.6845,-0.6845,-0.6845,-0.6845,-0.6845,-0.6938,-0.6944,-0.6933,-0.6936,-0.6927,-0.6928,-0.6924,-0.6919,-0.6912,-0.6913,-0.6911,-0.6901,-0.689,-0.6886,-0.6884,-0.688,-0.688,-0.6891,-0.6884,-0.6846,-0.684,-0.6834,-0.6831,-0.6891,-0.6891,-0.6926,-0.6926,-0.6927]},{"header":{"parameterUnit":"m.s-1","parameterCategory":1,"la1":30.2991,"la2":30.254,"lo1":-89.0895,"lo2":-89.0444,"dy":0.0017,"dx":0.0017,"nx":28,"ny":28,"refTime":"2025-09-06T03:00:00:Z","depth":0,"parameterNumber":3,"parameterNumberName":"V-component_of_WINDS"},"data":[0,0,0,0,0,0,0,0,0,0,0,0,0,0,0,0,0,0,0,0,0,0,0,0,0,0,0,0,0,0,0,0,0,0,0,0,0,0,0,0,0,0,0,0,0,0,0,0,0,0,0,0,0,0,0,0,0,0,2.7348,2.7347,0,2.7299,2.7299,2.7298,2.7284,2.7284,2.7284,2.7285,2.7231,2.7229,2.7227,0,0,0,0,0,0,0,0,0,0,0,0,0,2.7424,2.7423,2.7348,2.7347,2.7347,2.7299,2.7299,2.7298,2.7284,2.7284,2.7285,2.7285,2.7231,2.7229,2.7227,0,0,0,0,0,0,0,0,0,0,0,0,0,2.7385,2.7422,2.7348,2.7334,2.7332,2.7299,2.7299,2.7298,2.7284,2.7284,2.7285,2.7285,2.7232,2.7229,2.7227,2.7203,0,0,2.7219,2.7218,0,0,0,0,0,0,0,0,2.7387,2.7382,2.7337,2.7335,2.7333,2.7298,2.7306,2.7266,2.7284,2.7302,2.7285,2.7285,2.7252,2.7248,2.7238,2.7201,2.7198,2.7219,2.7217,2.7216,2.7216,0,0,0,0,0,0,0,2.739,2.7384,2.7328,2.7336,2.7334,2.7329,2.7324,2.7298,2.7275,2.73,2.7299,2.7294,2.7252,2.7241,2.7237,2.7198,2.7219,2.7217,2.7215,2.7214,2.7138,2.7137,0,0,0,0,0,0,2.7395,2.7386,2.733,2.7327,2.7362,2.7327,2.7321,2.7309,2.7276,2.7271,2.7294,2.7294,2.7245,2.724,2.7235,2.7205,2.7216,2.7214,2.7213,2.7138,2.7138,2.7137,0,0,0,0,0,0,2.7397,2.739,2.7332,2.7356,2.7348,2.7325,2.7311,2.7308,2.7297,2.7271,2.7266,2.7287,2.7245,2.7238,2.7211,2.7203,2.7213,2.7211,2.7139,2.7138,2.7137,2.7144,0,0,0,0,0,0,2.7399,2.7391,2.7383,2.7356,2.7347,2.7311,2.7311,2.7306,2.7293,2.7292,2.7263,2.7259,2.7245,2.7215,2.7209,2.7199,2.7209,2.714,2.7139,2.7138,2.7145,2.7144,2.7143,0,0,0,0,0,2.7402,2.7386,2.7382,2.7376,2.7337,2.731,2.7305,2.729,2.7292,2.7283,2.7266,2.726,2.7205,2.7213,2.7205,2.7195,2.714,2.7139,2.7138,2.7145,2.7144,2.7143,0,0,0,0,0,0,2.741,2.7382,2.7378,2.7353,2.7334,2.7308,2.7296,2.729,2.7269,2.7269,2.725,2.7244,2.7218,2.7204,2.7213,2.717,2.7172,2.7169,2.718,2.7179,2.7178,2.7182,2.7206,0,0,0,0,0,2.7409,2.7392,2.7367,2.7347,2.7339,2.7319,2.7307,2.7297,2.7276,2.7268,2.7249,2.7228,2.7206,2.7192,2.717,2.7143,2.7136,2.7132,2.7131,2.7131,2.7128,2.7112,2.711,2.7133,2.7133,2.7133,0,0,2.7407,2.7389,2.7379,2.7349,2.7333,2.7314,2.7312,2.7292,2.7277,2.7264,2.7238,2.7224,2.7199,2.7172,2.7159,2.7159,2.7121,2.7129,2.7129,2.7127,2.7111,2.7109,2.7107,2.7133,2.7133,2.7133,0,0,2.7392,2.7378,2.736,2.7345,2.7321,2.7309,2.7304,2.7279,2.7269,2.7243,2.7233,2.7215,2.7177,2.716,2.7146,2.7126,2.7119,2.7119,2.7115,2.7099,2.7098,2.7096,2.7088,2.7085,2.7117,2.7117,2.7117,0,2.7392,2.7364,2.7351,2.7331,2.7318,2.7307,2.7288,2.7273,2.7244,2.7234,2.7235,2.7189,2.7171,2.7139,2.7135,2.7124,2.7118,2.7122,2.7099,2.7097,2.7095,2.7088,2.7085,2.7117,2.7117,2.7117,2.7117,0,2.7364,2.7345,2.7333,2.7306,2.7291,2.7272,2.7255,2.7241,2.7233,2.722,2.7193,2.7172,2.7145,2.7137,2.7129,2.7104,2.7105,2.7103,2.7105,2.7094,2.7086,2.7083,2.7118,2.7118,2.7117,2.7117,0,0,2.7352,2.732,2.7316,2.7303,2.7277,2.7261,2.7241,2.7217,2.7206,2.7186,2.7168,2.7137,2.7135,2.7119,2.7108,2.7095,2.708,2.7094,2.7093,2.7092,2.7051,2.7052,2.7049,2.7075,2.7075,2.7074,2.7053,0,2.7334,2.73,2.7287,2.7258,2.724,2.723,2.7212,2.7193,2.7181,2.7162,2.7147,2.7125,2.7124,2.7115,2.7102,2.7085,2.7071,2.7086,2.7057,2.7056,2.7063,2.7045,2.7047,2.7028,2.705,2.7049,2.7049,0,2.7309,2.729,2.7259,2.7236,2.7228,2.7212,2.7189,2.7172,2.715,2.7142,2.7125,2.7115,2.7093,2.7096,2.7064,2.7075,2.7062,2.7052,2.7051,2.7047,2.7051,2.704,2.7021,2.7018,2.7044,2.7045,2.7045,0,2.7303,2.727,2.7247,2.7237,2.7209,2.7199,2.7186,2.7165,2.7152,2.7131,2.7122,2.7098,2.7085,2.7067,2.7051,2.7055,2.702,2.7022,2.7011,2.7011,2.7003,2.7004,2.6981,2.6996,2.6996,2.6996,2.6996,0,2.7283,2.7265,2.7244,2.723,2.7209,2.7195,2.7173,2.716,2.7142,2.7124,2.7114,2.7097,2.7077,2.7057,2.7045,2.702,2.7014,2.7005,2.7002,2.7006,2.7007,2.6997,2.6997,2.6996,2.6996,2.6996,2.6996,0,2.7273,2.7259,2.7233,2.721,2.7203,2.7188,2.7167,2.7153,2.714,2.7118,2.7111,2.709,2.7067,2.7049,2.7018,2.701,2.6983,2.698,2.699,2.6989,2.6978,2.6979,2.6948,2.6942,2.6962,2.6962,2.6961,0,2.7261,2.7247,2.7222,2.7211,2.7199,2.718,2.7166,2.7151,2.7137,2.7112,2.71,2.7076,2.7056,2.7019,2.7,2.6976,2.6972,2.6962,2.6968,2.6972,2.6971,2.6972,2.697,2.6961,2.6961,2.6961,2.6961,0,2.7242,2.7236,2.7218,2.7197,2.7181,2.7164,2.7146,2.7136,2.7118,2.7103,2.7079,2.7064,2.7033,2.7009,2.6984,2.6969,2.6961,2.696,2.6956,2.6959,2.6966,2.6961,2.6988,2.696,2.696,2.696,2.696,2.696,2.723,2.7217,2.7198,2.7177,2.7163,2.7147,2.7132,2.7118,2.7098,2.7073,2.7065,2.7041,2.7019,2.6984,2.697,2.695,2.695,2.6944,2.6942,2.6941,2.6941,2.697,2.6945,2.6945,2.6945,2.6945,2.6945,0,2.721,2.7197,2.7179,2.7155,2.7139,2.7135,2.7115,2.7101,2.7081,2.7062,2.7043,2.7016,2.6993,2.6972,2.6948,2.6936,2.6931,2.693,2.693,2.6926,2.6943,2.6948,2.6933,2.6933,2.6933,2.6933,2.6933,2.6933,2.7197,2.7175,2.7166,2.7136,2.7123,2.71,2.7089,2.7074,2.7059,2.703,2.7011,2.6998,2.6979,2.6953,2.6931,2.6925,2.6916,2.6915,2.6909,2.6924,2.6925,2.6927,2.6932,2.6914,2.6914,2.6894,2.6894,2.6894]}]]